EXS61RT LFPG-EGNM

Flight info

Callsign EXS61RT
Flight time 1h 21m
Altitude 32000
Route ATREX DCT VESAN DCT RATUK DCT SOVAT L613 SANDY UN601 EMBOR Q4 TNT N57 DENBY DCT LBA
Aircraft B738/M-SDE2E3FGHIRWXY/LB1

Departure

Time 2026-05-07 15:26
Airport Charles de Gaulle International Airport (LFPG)

Arrival

Time 2026-05-07 16:48
Airport Leeds Bradford Airport (EGNM)
Time Latitude Longitude Altitude Speed Heading
2026-05-07 14:58 49.01654 2.53907 353 ft 0 kts 194°
2026-05-07 15:13 49.01663 2.53910 363 ft 4 kts 198°
2026-05-07 15:13 49.01687 2.53929 361 ft 4 kts 225°
2026-05-07 15:13 49.01698 2.53959 363 ft 4 kts 277°
2026-05-07 15:14 49.01690 2.53980 360 ft 1 kts 334°
2026-05-07 15:14 49.01687 2.53983 360 ft 0 kts 334°
2026-05-07 15:17 49.01698 2.53975 357 ft 4 kts 333°
2026-05-07 15:18 49.01730 2.53941 361 ft 8 kts 314°
2026-05-07 15:18 49.01745 2.53849 357 ft 11 kts 255°
2026-05-07 15:18 49.01686 2.53750 357 ft 14 kts 219°
2026-05-07 15:18 49.01610 2.53639 355 ft 16 kts 254°
2026-05-07 15:19 49.01661 2.53500 353 ft 15 kts 298°
2026-05-07 15:19 49.01677 2.53346 359 ft 15 kts 265°
2026-05-07 15:19 49.01668 2.53194 353 ft 14 kts 266°
2026-05-07 15:19 49.01661 2.53048 353 ft 13 kts 265°
2026-05-07 15:20 49.01661 2.52910 359 ft 13 kts 283°
2026-05-07 15:20 49.01710 2.52801 353 ft 13 kts 320°
2026-05-07 15:20 49.01779 2.52725 359 ft 12 kts 303°
2026-05-07 15:20 49.01815 2.52609 354 ft 12 kts 281°
2026-05-07 15:21 49.01813 2.52483 358 ft 12 kts 266°
2026-05-07 15:21 49.01829 2.52370 360 ft 11 kts 327°
2026-05-07 15:21 49.01906 2.52353 354 ft 11 kts 355°
2026-05-07 15:21 49.01983 2.52343 354 ft 11 kts 354°
2026-05-07 15:22 49.02020 2.52339 360 ft 0 kts 355°
2026-05-07 15:24 49.02027 2.52338 354 ft 3 kts 355°
2026-05-07 15:24 49.02078 2.52332 354 ft 11 kts 356°
2026-05-07 15:25 49.02121 2.52419 360 ft 12 kts 84°
2026-05-07 15:25 49.02130 2.52575 355 ft 24 kts 85°
2026-05-07 15:25 49.02165 2.53208 360 ft 96 kts 85°
2026-05-07 15:25 49.02235 2.54536 359 ft 155 kts 85°
2026-05-07 15:26 49.02328 2.56330 814 ft 173 kts 85°
2026-05-07 15:26 49.02412 2.58162 1743 ft 172 kts 85°
2026-05-07 15:26 49.02503 2.59956 2597 ft 170 kts 84°
2026-05-07 15:26 49.02606 2.61775 3318 ft 180 kts 85°
2026-05-07 15:27 49.02722 2.63865 3602 ft 211 kts 85°
2026-05-07 15:27 49.02847 2.66144 4060 ft 223 kts 85°
2026-05-07 15:27 49.02976 2.68545 4619 ft 234 kts 85°
2026-05-07 15:27 49.03114 2.71164 4922 ft 261 kts 85°
2026-05-07 15:28 49.03569 2.73859 5589 ft 270 kts 59°
2026-05-07 15:28 49.04891 2.75893 6473 ft 273 kts 29°
2026-05-07 15:28 49.06697 2.76698 7253 ft 278 kts
2026-05-07 15:28 49.08614 2.76253 8094 ft 280 kts 342°
2026-05-07 15:29 49.10469 2.75281 8929 ft 283 kts 339°
2026-05-07 15:29 49.12315 2.74222 9741 ft 287 kts 338°
2026-05-07 15:29 49.14206 2.73125 10432 ft 295 kts 338°
2026-05-07 15:29 49.16191 2.71978 10636 ft 320 kts 338°
2026-05-07 15:30 49.18356 2.70739 10952 ft 339 kts 339°
2026-05-07 15:30 49.20580 2.69480 11609 ft 345 kts 339°
2026-05-07 15:30 49.22857 2.68201 12423 ft 348 kts 339°
2026-05-07 15:30 49.25146 2.66920 13199 ft 351 kts 339°
2026-05-07 15:31 49.27434 2.65643 13938 ft 354 kts 338°
2026-05-07 15:31 49.29778 2.64334 14592 ft 359 kts 338°
2026-05-07 15:31 49.32111 2.63033 15256 ft 362 kts 338°
2026-05-07 15:31 49.34493 2.61704 15943 ft 365 kts 338°
2026-05-07 15:32 49.36908 2.60355 16628 ft 368 kts 338°
2026-05-07 15:32 49.39308 2.59013 17294 ft 372 kts 338°
2026-05-07 15:32 49.41769 2.57635 17953 ft 376 kts 338°
2026-05-07 15:32 49.44217 2.56264 18567 ft 379 kts 338°
2026-05-07 15:33 49.46717 2.54862 19136 ft 382 kts 338°
2026-05-07 15:33 49.49214 2.53460 19691 ft 385 kts 338°
2026-05-07 15:33 49.51751 2.52034 20265 ft 388 kts 338°
2026-05-07 15:33 49.54304 2.50598 20808 ft 391 kts 338°
2026-05-07 15:34 49.56852 2.49161 21339 ft 394 kts 338°
2026-05-07 15:34 49.59453 2.47695 21880 ft 398 kts 338°
2026-05-07 15:34 49.62037 2.46236 22407 ft 401 kts 338°
2026-05-07 15:34 49.63782 2.45249 22761 ft 403 kts 338°
2026-05-07 15:35 49.67308 2.43254 23442 ft 407 kts 338°
2026-05-07 15:35 49.69962 2.41750 23884 ft 410 kts 338°
2026-05-07 15:35 49.71782 2.40718 24176 ft 411 kts 338°
2026-05-07 15:35 49.74451 2.39204 24618 ft 413 kts 338°
2026-05-07 15:36 49.78064 2.37150 25173 ft 416 kts 338°
2026-05-07 15:36 49.79870 2.36119 25437 ft 418 kts 338°
2026-05-07 15:36 49.82621 2.34535 25842 ft 420 kts 337°
2026-05-07 15:36 49.85339 2.32961 26250 ft 422 kts 337°
2026-05-07 15:37 49.88111 2.31353 26643 ft 424 kts 337°
2026-05-07 15:37 49.90863 2.29756 27025 ft 427 kts 337°
2026-05-07 15:37 49.93659 2.28132 27403 ft 429 kts 337°
2026-05-07 15:37 49.96479 2.26492 27783 ft 431 kts 337°
2026-05-07 15:38 49.99259 2.24874 28229 ft 431 kts 337°
2026-05-07 15:38 50.02063 2.23242 28790 ft 428 kts 337°
2026-05-07 15:38 50.04856 2.21615 29355 ft 426 kts 337°
2026-05-07 15:38 50.07609 2.20008 29831 ft 425 kts 337°
2026-05-07 15:39 50.10383 2.18386 30264 ft 424 kts 336°
2026-05-07 15:39 50.13155 2.16763 30658 ft 423 kts 336°
2026-05-07 15:39 50.15881 2.15165 31045 ft 422 kts 336°
2026-05-07 15:39 50.18642 2.13545 31413 ft 422 kts 336°
2026-05-07 15:40 50.21400 2.11924 31786 ft 421 kts 336°
2026-05-07 15:40 50.24118 2.10325 32069 ft 422 kts 336°
2026-05-07 15:40 50.29673 2.07050 32063 ft 426 kts 336°
2026-05-07 15:41 50.35150 2.03795 32052 ft 418 kts 333°
2026-05-07 15:41 50.40010 1.98994 32062 ft 412 kts 316°
2026-05-07 15:42 50.44304 1.93047 32062 ft 414 kts 316°
2026-05-07 15:42 50.48624 1.87064 32063 ft 415 kts 316°
2026-05-07 15:43 50.53008 1.81047 32057 ft 416 kts 316°
2026-05-07 15:43 50.57348 1.75097 32047 ft 417 kts 316°
2026-05-07 15:44 50.61728 1.69078 32048 ft 416 kts 316°
2026-05-07 15:44 50.66071 1.63093 32055 ft 414 kts 316°
2026-05-07 15:45 50.70390 1.57123 32060 ft 413 kts 316°
2026-05-07 15:45 50.74688 1.51165 32054 ft 412 kts 316°
2026-05-07 15:46 50.81141 1.42200 32068 ft 411 kts 316°
2026-05-07 15:47 50.85418 1.36246 32071 ft 411 kts 316°
2026-05-07 15:47 50.89715 1.30246 32072 ft 411 kts 316°
2026-05-07 15:48 50.93997 1.24252 32073 ft 412 kts 316°
2026-05-07 15:48 50.98285 1.18234 32077 ft 413 kts 316°
2026-05-07 15:49 51.02600 1.12164 32076 ft 414 kts 316°
2026-05-07 15:49 51.06851 1.06039 32069 ft 413 kts 310°
2026-05-07 15:50 51.10507 0.99033 32074 ft 412 kts 306°
2026-05-07 15:50 51.14075 0.91899 32074 ft 413 kts 306°
2026-05-07 15:51 51.17672 0.84790 32073 ft 413 kts 306°
2026-05-07 15:51 51.19488 0.81221 31965 ft 414 kts 307°
2026-05-07 15:51 51.21310 0.77641 31947 ft 414 kts 307°
2026-05-07 15:52 51.24924 0.70526 31915 ft 415 kts 307°
2026-05-07 15:52 51.28563 0.63342 31896 ft 415 kts 306°
2026-05-07 15:53 51.32354 0.56406 31899 ft 416 kts 313°
2026-05-07 15:53 51.36514 0.49991 31923 ft 416 kts 314°
2026-05-07 15:54 51.40688 0.43597 31942 ft 416 kts 313°
2026-05-07 15:54 51.42770 0.40367 32067 ft 416 kts 313°
2026-05-07 15:54 51.44827 0.37154 32069 ft 416 kts 313°
2026-05-07 15:55 51.48957 0.30666 32073 ft 416 kts 313°
2026-05-07 15:55 51.53106 0.24122 32074 ft 416 kts 313°
2026-05-07 15:56 51.57232 0.17598 32077 ft 417 kts 313°
2026-05-07 15:56 51.61354 0.11063 32076 ft 417 kts 313°
2026-05-07 15:57 51.65490 0.04488 32071 ft 418 kts 313°
2026-05-07 15:57 51.69608 -0.02075 32068 ft 418 kts 313°
2026-05-07 15:58 51.73757 -0.08698 32075 ft 419 kts 314°
2026-05-07 15:58 51.78485 -0.14205 32084 ft 423 kts 328°
2026-05-07 15:59 51.83579 -0.18929 32056 ft 424 kts 328°
2026-05-07 15:59 51.88687 -0.23714 32047 ft 425 kts 328°
2026-05-07 16:00 51.93816 -0.28465 32047 ft 426 kts 327°
2026-05-07 16:00 51.98876 -0.33408 32050 ft 426 kts 327°
2026-05-07 16:01 52.03996 -0.38367 32047 ft 428 kts 328°
2026-05-07 16:01 52.09121 -0.43298 32052 ft 429 kts 328°
2026-05-07 16:02 52.14249 -0.48265 32042 ft 429 kts 328°
2026-05-07 16:02 52.19359 -0.53237 32042 ft 425 kts 328°
2026-05-07 16:02 52.21860 -0.55671 32038 ft 412 kts 328°
2026-05-07 16:03 52.24300 -0.58049 32033 ft 407 kts 328°
2026-05-07 16:03 52.29168 -0.62804 31809 ft 411 kts 328°
2026-05-07 16:03 52.31610 -0.65193 31550 ft 405 kts 328°
2026-05-07 16:04 52.34019 -0.67551 31167 ft 402 kts 328°
2026-05-07 16:04 52.36413 -0.69899 30815 ft 399 kts 328°
2026-05-07 16:04 52.38784 -0.72227 30448 ft 397 kts 328°
2026-05-07 16:04 52.41149 -0.74554 30087 ft 395 kts 328°
2026-05-07 16:05 52.43496 -0.76864 29659 ft 392 kts 328°
2026-05-07 16:05 52.45823 -0.79159 29283 ft 389 kts 328°
2026-05-07 16:05 52.48130 -0.81436 28910 ft 385 kts 328°
2026-05-07 16:05 52.50384 -0.83665 28548 ft 381 kts 328°
2026-05-07 16:06 52.52667 -0.85925 28173 ft 378 kts 328°
2026-05-07 16:06 52.54894 -0.88133 27829 ft 375 kts 328°
2026-05-07 16:06 52.57128 -0.90348 27452 ft 372 kts 328°
2026-05-07 16:06 52.59342 -0.92547 27097 ft 369 kts 328°
2026-05-07 16:07 52.61507 -0.94699 26736 ft 367 kts 328°
2026-05-07 16:07 52.63690 -0.96862 26446 ft 362 kts 328°
2026-05-07 16:07 52.65848 -0.98999 26088 ft 360 kts 327°
2026-05-07 16:07 52.67970 -1.01103 25748 ft 358 kts 327°
2026-05-07 16:08 52.70099 -1.03216 25414 ft 356 kts 327°
2026-05-07 16:08 52.72229 -1.05333 25072 ft 354 kts 327°
2026-05-07 16:08 52.74304 -1.07399 24734 ft 352 kts 327°
2026-05-07 16:08 52.76396 -1.09493 24423 ft 349 kts 327°
2026-05-07 16:09 52.78467 -1.11575 24099 ft 347 kts 327°
2026-05-07 16:09 52.80535 -1.13656 23767 ft 346 kts 327°
2026-05-07 16:09 52.82564 -1.15702 23399 ft 344 kts 327°
2026-05-07 16:09 52.84608 -1.17764 23029 ft 343 kts 327°
2026-05-07 16:10 52.86645 -1.19821 22663 ft 341 kts 327°
2026-05-07 16:10 52.88664 -1.21860 22326 ft 338 kts 327°
2026-05-07 16:10 52.90643 -1.23862 21994 ft 335 kts 327°
2026-05-07 16:10 52.92632 -1.25875 21672 ft 333 kts 327°
2026-05-07 16:11 52.94567 -1.27899 21342 ft 330 kts 321°
2026-05-07 16:11 52.96198 -1.30540 21034 ft 323 kts 305°
2026-05-07 16:11 52.97363 -1.33685 20731 ft 318 kts 292°
2026-05-07 16:11 52.98193 -1.37018 20430 ft 315 kts 289°
2026-05-07 16:12 52.99002 -1.40429 20116 ft 313 kts 289°
2026-05-07 16:12 52.99788 -1.43745 19805 ft 312 kts 289°
2026-05-07 16:12 53.00588 -1.47092 19495 ft 310 kts 289°
2026-05-07 16:12 53.01389 -1.50417 19186 ft 309 kts 290°
2026-05-07 16:13 53.02192 -1.53735 18876 ft 308 kts 290°
2026-05-07 16:13 53.02982 -1.56995 18574 ft 307 kts 290°
2026-05-07 16:13 53.03774 -1.60266 18252 ft 306 kts 290°
2026-05-07 16:13 53.04573 -1.63547 17898 ft 305 kts 292°
2026-05-07 16:14 53.05768 -1.66476 17414 ft 312 kts 315°
2026-05-07 16:14 53.07604 -1.68489 16924 ft 319 kts 335°
2026-05-07 16:14 53.09669 -1.69782 16524 ft 321 kts 339°
2026-05-07 16:14 53.11787 -1.71017 16155 ft 321 kts 339°
2026-05-07 16:15 53.13898 -1.72279 15816 ft 320 kts 338°
2026-05-07 16:15 53.15967 -1.73546 15489 ft 318 kts 338°
2026-05-07 16:15 53.18046 -1.74831 15158 ft 317 kts 338°
2026-05-07 16:15 53.20095 -1.76103 14845 ft 316 kts 338°
2026-05-07 16:16 53.22161 -1.77388 14534 ft 315 kts 338°
2026-05-07 16:16 53.24190 -1.78651 14220 ft 314 kts 338°
2026-05-07 16:16 53.26245 -1.79932 13906 ft 313 kts 338°
2026-05-07 16:16 53.28265 -1.81194 13588 ft 311 kts 338°
2026-05-07 16:17 53.30294 -1.82461 13278 ft 308 kts 338°
2026-05-07 16:17 53.32293 -1.83710 12790 ft 305 kts 338°
2026-05-07 16:17 53.34285 -1.84956 12250 ft 305 kts 338°
2026-05-07 16:17 53.36235 -1.86177 11786 ft 301 kts 337°
2026-05-07 16:18 53.38196 -1.87407 11338 ft 298 kts 337°
2026-05-07 16:18 53.40123 -1.88615 11022 ft 290 kts 337°
2026-05-07 16:18 53.41970 -1.89775 10670 ft 285 kts 337°
2026-05-07 16:18 53.43831 -1.90946 10239 ft 283 kts 337°
2026-05-07 16:19 53.45663 -1.92100 9832 ft 281 kts 337°
2026-05-07 16:19 53.47490 -1.93251 9386 ft 279 kts 337°
2026-05-07 16:19 53.49309 -1.94398 8928 ft 278 kts 337°
2026-05-07 16:19 53.51098 -1.95527 8503 ft 276 kts 337°
2026-05-07 16:20 53.52895 -1.96662 8080 ft 274 kts 337°
2026-05-07 16:20 53.54658 -1.97778 7667 ft 272 kts 337°
2026-05-07 16:20 53.56419 -1.98893 7334 ft 267 kts 337°
2026-05-07 16:20 53.58150 -1.99990 7045 ft 261 kts 338°
2026-05-07 16:21 53.59818 -2.01048 6780 ft 254 kts 337°
2026-05-07 16:21 53.61459 -2.02090 6534 ft 254 kts 338°
2026-05-07 16:21 53.63122 -2.03147 6266 ft 255 kts 338°
2026-05-07 16:21 53.64791 -2.04210 6001 ft 256 kts 338°
2026-05-07 16:22 53.66439 -2.05259 5741 ft 255 kts 337°
2026-05-07 16:22 53.68088 -2.06310 5478 ft 254 kts 338°
2026-05-07 16:22 53.69738 -2.07362 5323 ft 249 kts 338°
2026-05-07 16:22 53.71355 -2.08394 5179 ft 245 kts 338°
2026-05-07 16:23 53.72934 -2.09402 5096 ft 244 kts 338°
2026-05-07 16:23 53.74522 -2.10433 4989 ft 239 kts 334°
2026-05-07 16:23 53.75770 -2.12099 4990 ft 228 kts 301°
2026-05-07 16:23 53.76311 -2.14602 5008 ft 230 kts 271°
2026-05-07 16:24 53.76077 -2.17259 5008 ft 229 kts 243°
2026-05-07 16:24 53.75139 -2.19351 5002 ft 225 kts 216°
2026-05-07 16:24 53.73730 -2.20393 5006 ft 219 kts 189°
2026-05-07 16:24 53.72227 -2.20295 4992 ft 220 kts 166°
2026-05-07 16:25 53.70767 -2.19456 5007 ft 221 kts 160°
2026-05-07 16:25 53.69330 -2.18505 5009 ft 223 kts 160°
2026-05-07 16:25 53.67894 -2.17554 5000 ft 224 kts 160°
2026-05-07 16:25 53.66428 -2.16594 4993 ft 225 kts 160°
2026-05-07 16:26 53.65038 -2.15448 4987 ft 227 kts 142°
2026-05-07 16:26 53.64119 -2.13301 5009 ft 230 kts 112°
2026-05-07 16:26 53.63917 -2.10614 5006 ft 236 kts 84°
2026-05-07 16:26 53.64223 -2.08854 5003 ft 239 kts 64°
2026-05-07 16:27 53.65806 -2.06319 4996 ft 243 kts 21°
2026-05-07 16:27 53.67477 -2.05992 5001 ft 243 kts 349°
2026-05-07 16:27 53.69078 -2.06775 5009 ft 243 kts 338°
2026-05-07 16:27 53.70662 -2.07823 4992 ft 244 kts 336°
2026-05-07 16:28 53.72224 -2.08872 5010 ft 244 kts 336°
2026-05-07 16:28 53.73817 -2.09926 5006 ft 247 kts 337°
2026-05-07 16:28 53.75343 -2.11244 4960 ft 243 kts 315°
2026-05-07 16:28 53.76217 -2.13530 5005 ft 232 kts 282°
2026-05-07 16:29 53.76269 -2.16237 4992 ft 231 kts 253°
2026-05-07 16:29 53.75557 -2.18578 4998 ft 226 kts 225°
2026-05-07 16:29 53.74265 -2.20040 4999 ft 224 kts 197°
2026-05-07 16:29 53.72720 -2.20331 5001 ft 226 kts 172°
2026-05-07 16:30 53.71218 -2.19623 5007 ft 226 kts 161°
2026-05-07 16:30 53.70236 -2.18987 5005 ft 227 kts 159°
2026-05-07 16:30 53.68271 -2.17677 4983 ft 228 kts 160°
2026-05-07 16:30 53.67286 -2.17027 4994 ft 228 kts 160°
2026-05-07 16:31 53.65337 -2.15663 4976 ft 229 kts 149°
2026-05-07 16:31 53.64553 -2.14470 4996 ft 229 kts 127°
2026-05-07 16:31 53.63961 -2.11993 5000 ft 232 kts 98°
2026-05-07 16:31 53.64151 -2.09283 5000 ft 236 kts 69°
2026-05-07 16:32 53.65105 -2.07071 4977 ft 239 kts 38°
2026-05-07 16:32 53.66628 -2.05986 5003 ft 239 kts
2026-05-07 16:32 53.68251 -2.06303 5009 ft 238 kts 341°
2026-05-07 16:32 53.69824 -2.07267 5003 ft 239 kts 337°
2026-05-07 16:33 53.71357 -2.08297 5004 ft 241 kts 337°
2026-05-07 16:33 53.72941 -2.09352 5006 ft 245 kts 337°
2026-05-07 16:33 53.74527 -2.10411 5010 ft 246 kts 334°
2026-05-07 16:33 53.75834 -2.12175 4977 ft 237 kts 300°
2026-05-07 16:34 53.76352 -2.14715 4997 ft 233 kts 270°
2026-05-07 16:34 53.76061 -2.17371 4998 ft 229 kts 241°
2026-05-07 16:34 53.75068 -2.19422 4997 ft 226 kts 213°
2026-05-07 16:34 53.73638 -2.20401 4998 ft 226 kts 187°
2026-05-07 16:35 53.72072 -2.20210 4992 ft 227 kts 165°
2026-05-07 16:35 53.70590 -2.19330 4997 ft 228 kts 160°
2026-05-07 16:35 53.69101 -2.18337 4991 ft 229 kts 159°
2026-05-07 16:35 53.67617 -2.17351 4991 ft 229 kts 160°
2026-05-07 16:36 53.66146 -2.16387 4988 ft 229 kts 159°
2026-05-07 16:36 53.64784 -2.15083 4971 ft 229 kts 135°
2026-05-07 16:36 53.63996 -2.12785 4993 ft 230 kts 106°
2026-05-07 16:36 53.63948 -2.10092 4997 ft 234 kts 78°
2026-05-07 16:37 53.64663 -2.07701 5003 ft 237 kts 49°
2026-05-07 16:37 53.66020 -2.06186 4998 ft 239 kts 18°
2026-05-07 16:37 53.67636 -2.05441 5003 ft 242 kts 15°
2026-05-07 16:37 53.69297 -2.04755 5002 ft 246 kts 11°
2026-05-07 16:38 53.70964 -2.04224 4995 ft 247 kts 10°
2026-05-07 16:38 53.72658 -2.03708 4985 ft 245 kts 10°
2026-05-07 16:38 53.74331 -2.03206 5004 ft 242 kts 10°
2026-05-07 16:38 53.75993 -2.02711 4994 ft 242 kts 10°
2026-05-07 16:39 53.77635 -2.02224 4994 ft 242 kts 10°
2026-05-07 16:39 53.79293 -2.01729 4976 ft 240 kts 10°
2026-05-07 16:39 53.80959 -2.01232 4862 ft 244 kts 10°
2026-05-07 16:39 53.82643 -2.00729 4744 ft 247 kts 10°
2026-05-07 16:40 53.84318 -2.00233 4621 ft 247 kts 10°
2026-05-07 16:40 53.86003 -1.99735 4465 ft 242 kts 10°
2026-05-07 16:40 53.87654 -1.99253 4334 ft 239 kts 10°
2026-05-07 16:40 53.89284 -1.98781 4188 ft 235 kts 10°
2026-05-07 16:41 53.90888 -1.98323 4063 ft 232 kts 10°
2026-05-07 16:41 53.92461 -1.97880 3934 ft 232 kts 10°
2026-05-07 16:41 53.94050 -1.97338 3783 ft 233 kts 22°
2026-05-07 16:41 53.95346 -1.95763 3655 ft 230 kts 46°
2026-05-07 16:42 53.96497 -1.93874 3464 ft 228 kts 45°
2026-05-07 16:42 53.97626 -1.92056 3285 ft 224 kts 45°
2026-05-07 16:42 53.98759 -1.90243 3109 ft 221 kts 45°
2026-05-07 16:42 53.99850 -1.88505 3045 ft 213 kts 45°
2026-05-07 16:43 54.00707 -1.86501 2972 ft 209 kts 78°
2026-05-07 16:43 54.00556 -1.84164 3002 ft 198 kts 122°
2026-05-07 16:43 53.99550 -1.82843 2979 ft 180 kts 169°
2026-05-07 16:43 53.98359 -1.83008 3006 ft 166 kts 185°
2026-05-07 16:44 53.97304 -1.82509 2987 ft 160 kts 133°
2026-05-07 16:44 53.96568 -1.80980 2984 ft 171 kts 140°
2026-05-07 16:44 53.95604 -1.79916 2997 ft 162 kts 142°
2026-05-07 16:44 53.94778 -1.78686 2988 ft 155 kts 137°
2026-05-07 16:45 53.93986 -1.77446 2888 ft 157 kts 137°
2026-05-07 16:45 53.93199 -1.76229 2615 ft 149 kts 137°
2026-05-07 16:45 53.92466 -1.75103 2395 ft 138 kts 137°
2026-05-07 16:45 53.91768 -1.74028 2191 ft 134 kts 137°
2026-05-07 16:46 53.91073 -1.72958 1988 ft 139 kts 137°
2026-05-07 16:46 53.90346 -1.71841 1761 ft 141 kts 137°
2026-05-07 16:46 53.89615 -1.70715 1499 ft 141 kts 137°
2026-05-07 16:46 53.88917 -1.69636 1279 ft 135 kts 137°
2026-05-07 16:47 53.88219 -1.68550 1030 ft 135 kts 137°
2026-05-07 16:47 53.87530 -1.67505 801 ft 132 kts 138°
2026-05-07 16:47 53.86858 -1.66477 674 ft 124 kts 137°
2026-05-07 16:47 53.86352 -1.65692 672 ft 68 kts 137°
2026-05-07 16:48 53.86277 -1.65465 678 ft 14 kts 12°
2026-05-07 16:48 53.86378 -1.65452 676 ft 15 kts
2026-05-07 16:48 53.86497 -1.65443 668 ft 19 kts
2026-05-07 16:48 53.86633 -1.65426 662 ft 20 kts
2026-05-07 16:49 53.86729 -1.65417 660 ft 12 kts
2026-05-07 16:49 53.86808 -1.65405 661 ft 11 kts 24°
2026-05-07 16:49 53.86825 -1.65303 660 ft 0 kts 91°
2026-05-07 16:49 53.86825 -1.65294 660 ft 2 kts 90°
2026-05-07 16:50 53.86825 -1.65251 661 ft 4 kts 89°
2026-05-07 16:50 53.86847 -1.65222 663 ft 4 kts 11°
2026-05-07 16:50 53.86871 -1.65219 664 ft 1 kts
2026-05-07 16:50 53.86875 -1.65219 664 ft 0 kts